Wind_Speed
4 5 5 5 4 3 3 4 4 3 4 5 6 7 8 9 10 11 13 14 14 15 14 14 14 14 15 15 16 18 18 18 18 17 16 16 16 15 16 15 14 14 14 13 12 12 11 10 10
6 6 6 5 4 4 5 6 5 5 6 7 8 9 10 11 12 13 14 15 16 16 16 16 17 17 18 19 20 20 21 20 21 20 19 18 18 18 17 17 16 16 16 15 14 14 12 11 11
8 7 6 5 5 5 6 7 6 6 7 8 10 11 12 13 14 15 16 17 17 17 18 18 19 19 20 21 21 21 22 22 23 23 21 21 20 20 19 19 19 18 18 17 16 15 14 13 12
9 8 7 6 5 6 6 6 7 8 9 10 12 13 14 15 16 16 16 17 17 18 18 18 19 20 21 22 23 23 24 24 24 25 24 24 24 23 22 21 21 21 20 19 18 18 16 15 14
10 10 9 7 7 7 7 8 9 10 10 11 13 14 15 16 16 16 15 16 16 16 16 17 18 19 20 21 22 24 25 26 27 28 28 28 26 26 25 24 23 23 23 22 21 19 19 18 16
12 11 10 9 9 9 9 10 10 10 11 12 13 14 15 15 15 15 15 15 15 15 16 16 16 17 17 19 20 22 23 25 26 27 28 28 28 28 28 27 27 25 24 23 22 22 20 20 18
13 12 11 11 10 10 10 10 10 11 12 13 14 15 15 14 14 14 14 14 14 14 14 14 15 16 16 17 18 19 21 23 23 25 26 27 27 27 28 28 28 27 26 24 23 23 23 22 20
15 13 13 11 11 10 10 10 11 12 13 13 14 14 14 13 13 13 13 13 13 13 13 13 14 15 15 16 17 18 19 21 22 22 24 25 27 27 28 28 28 28 27 26 25 24 24 23 22
16 15 14 12 11 11 11 11 12 12 13 13 14 13 13 13 12 12 12 11 11 11 12 12 13 13 14 15 16 17 18 19 21 22 23 24 25 26 28 28 28 28 28 27 26 25 26 24 24
17 16 15 13 12 12 11 11 12 13 14 13 12 12 12 12 11 10 10 10 10 10 10 11 12 12 13 14 15 16 17 18 19 20 22 23 24 25 25 27 28 28 28 28 27 27 26 25 25
18 18 16 14 13 13 13 12 13 13 13 12 11 11 11 10 9 8 8 8 9 9 10 11 11 12 13 14 15 16 17 17 18 19 20 20 21 23 24 25 26 27 28 28 28 28 26 26 26
20 19 18 16 15 14 13 13 14 13 12 11 10 10 10 9 8 7 7 7 8 9 10 10 11 12 13 14 15 16 16 17 17 17 18 19 20 20 22 24 24 25 27 28 28 28 27 26 27
21 20 18 16 15 14 14 14 14 13 11 10 10 9 9 8 7 6 6 7 7 8 9 10 11 12 13 14 14 15 15 15 16 16 17 18 19 19 20 22 23 24 26 27 28 28 28 28 27
20 19 18 16 15 14 14 13 13 12 12 10 10 8 7 7 6 6 6 6 7 8 9 10 11 12 13 14 14 15 15 15 15 15 15 15 16 17 19 19 21 23 24 26 27 27 27 27 27
20 19 18 16 15 15 14 13 12 12 12 10 9 7 6 6 5 5 5 6 6 7 9 10 11 12 13 14 15 15 15 15 15 14 14 14 14 15 16 18 19 20 22 24 25 26 27 26 25
20 18 17 16 15 15 14 14 12 12 12 10 8 7 6 5 5 5 5 5 6 7 9 10 11 12 13 14 15 16 16 16 15 14 14 13 13 13 13 15 16 17 19 21 23 24 25 26 25
19 17 16 15 15 14 13 13 12 12 11 9 8 7 5 5 5 4 5 5 6 7 8 10 11 12 14 14 15 16 16 16 15 14 14 13 12 11 11 12 13 14 16 18 20 21 23 25 25
17 16 16 15 14 14 13 13 13 12 11 9 8 7 6 5 5 5 5 5 6 7 8 9 11 12 14 15 15 16 17 16 15 14 14 13 12 11 9 9 9 10 12 15 17 19 21 23 25
17 16 15 15 14 13 13 13 13 11 10 9 8 7 6 6 5 5 5 5 6 7 8 9 10 12 13 14 15 16 17 16 15 14 14 13 12 10 8 7 7 7 9 12 14 16 19 21 23
16 15 14 14 13 13 12 12 13 12 11 9 9 8 7 6 6 6 5 5 6 7 8 9 10 12 13 14 16 16 17 17 16 15 14 14 12 10 8 7 7 6 7 8 11 14 16 18 21
15 14 14 13 12 13 12 12 13 12 11 10 9 8 7 7 6 6 5 5 6 7 8 10 11 12 13 14 15 16 17 17 16 15 14 14 13 11 9 8 6 6 6 6 8 11 13 16 18
15 14 14 13 12 12 12 12 12 12 11 10 9 9 8 7 6 6 5 5 6 7 8 10 11 12 13 14 15 16 16 16 16 15 14 14 13 12 11 8 7 5 4 5 7 9 11 13 15
15 14 14 13 12 12 12 12 11 12 11 10 9 9 8 7 6 6 6 6 6 7 8 9 10 11 12 13 14 15 16 16 16 15 15 14 13 13 11 9 7 6 4 4 5 7 9 12 14
14 14 13 12 12 12 12 12 10 11 11 10 10 9 9 8 6 6 6 6 6 7 8 9 10 11 12 13 14 15 15 16 16 15 15 14 14 13 12 10 8 7 5 4 5 6 8 11 13
14 13 12 12 12 13 12 12 11 11 10 10 10 10 9 8 7 6 6 6 6 7 8 9 10 11 12 12 13 14 15 16 16 15 15 14 14 13 13 11 10 8 7 5 5 6 7 10 12
13 12 12 12 12 13 12 12 12 11 11 10 10 10 10 9 8 7 6 6 6 7 8 8 9 10 11 12 13 14 15 16 16 15 15 14 14 14 13 12 11 9 8 7 5 5 6 8 11
13 13 13 13 13 12 12 11 12 12 11 11 11 11 10 9 8 7 7 6 6 7 8 8 9 10 11 12 13 14 15 15 15 15 15 15 14 14 13 12 12 10 9 8 7 6 6 7 9
12 13 13 13 14 13 11 11 12 12 12 12 12 12 11 10 9 8 7 6 6 7 7 8 9 10 11 12 13 14 14 15 15 15 15 15 14 14 13 13 12 11 10 9 8 7 7 7 8
12 13 13 14 15 14 13 12 13 13 13 13 13 13 13 11 10 9 8 7 6 7 7 8 9 10 10 11 12 13 14 15 15 15 15 14 14 14 14 13 12 12 11 10 9 8 8 8 9
13 13 14 15 15 14 14 12 15 15 15 15 15 15 14 13 11 10 9 7 7 7 7 8 9 10 10 11 12 13 14 14 14 15 15 14 14 14 14 14 13 12 12 11 10 9 9 9 10
Wind_Direction
275 291 310 316 313 308 300 293 280 274 283 290 296 300 304 304 303 298 298 296 295 294 291 287 285 282 278 277 280 278 273 272 272 269 265 261 258 259 253 251 252 248 243 243 242 240 240 244 246
279 287 303 309 305 304 298 294 281 287 295 299 302 306 307 306 304 302 298 296 295 293 291 288 285 282 278 277 279 278 276 274 271 271 267 265 261 259 258 254 253 249 246 243 241 239 239 241 243
273 281 291 297 295 303 303 296 290 298 305 308 308 308 308 307 304 303 301 299 297 294 291 288 284 281 279 277 276 275 276 275 272 270 267 265 263 263 260 256 253 249 250 246 242 239 236 238 239
268 275 279 289 287 295 300 296 296 303 311 311 310 309 309 308 306 305 304 303 301 297 293 289 286 283 280 278 277 274 274 275 274 273 269 267 264 263 263 258 255 252 252 249 245 241 236 236 236
266 268 275 283 288 286 294 299 303 303 308 312 312 310 310 311 309 309 308 307 305 303 300 295 291 289 285 281 279 277 276 275 274 272 269 268 266 265 262 259 258 256 252 250 249 245 238 235 233
262 265 266 272 282 284 288 298 303 303 308 311 310 311 312 313 313 313 312 311 311 309 306 303 299 294 290 287 283 280 278 276 275 273 269 267 268 266 264 260 258 257 256 253 250 246 242 236 232
256 259 260 266 275 286 292 298 302 307 309 309 309 310 312 315 315 315 315 315 314 313 312 310 306 301 296 293 290 286 282 278 277 275 270 268 267 265 263 260 259 258 255 253 250 246 243 238 233
252 257 261 266 274 287 293 297 302 306 308 308 309 310 313 316 317 317 318 318 318 318 318 317 314 311 305 300 296 292 287 283 280 277 272 269 267 264 263 260 258 256 255 252 251 248 244 239 234
250 254 258 262 273 284 291 295 300 304 307 308 308 309 313 317 319 321 322 323 324 324 324 323 321 318 315 309 304 300 295 289 285 280 277 273 269 266 263 260 259 256 253 251 249 247 247 239 235
245 249 253 260 271 279 288 295 301 304 308 306 306 308 313 317 322 324 325 328 329 329 330 329 326 323 321 317 312 307 302 297 291 286 282 276 270 267 265 262 259 256 254 252 249 247 247 242 238
242 246 252 257 267 277 288 297 303 304 305 303 304 309 312 317 323 324 326 331 334 335 336 335 333 330 327 326 322 315 308 303 298 292 287 280 273 268 265 263 259 257 254 252 249 247 244 242 240
242 246 251 256 266 275 283 294 299 299 299 299 303 311 314 317 322 324 329 334 338 342 343 343 342 339 336 334 330 324 316 309 304 299 293 286 279 271 264 261 260 256 254 252 250 247 243 241 239
238 243 249 255 263 271 279 288 292 292 294 296 300 305 310 314 320 326 333 339 346 348 348 348 346 344 342 340 336 332 327 321 313 306 301 293 284 276 270 263 259 256 253 252 249 246 243 240 236
234 240 247 255 262 268 276 285 287 287 289 293 297 300 306 310 317 326 335 343 347 348 349 349 347 346 345 344 342 340 337 332 326 319 311 304 293 282 274 269 263 257 253 250 247 244 242 238 232
232 236 244 254 260 266 272 281 285 283 285 289 292 296 303 305 314 323 332 341 345 347 349 350 351 350 348 346 345 346 343 338 334 329 321 313 303 291 281 273 267 259 254 250 246 242 239 236 233
230 236 244 251 258 262 269 276 279 279 280 283 284 288 295 297 307 314 323 334 341 345 349 352 354 354 351 348 346 346 346 343 339 336 331 324 315 301 289 279 271 262 255 249 245 240 237 233 232
226 233 241 248 254 260 266 275 276 275 277 277 278 282 285 286 294 302 315 329 338 343 348 352 355 356 354 351 348 347 346 346 344 342 338 335 328 317 301 286 276 266 257 250 244 239 235 233 232
224 230 238 248 251 256 264 272 272 273 274 272 271 275 277 279 283 293 307 322 332 340 347 351 354 356 356 354 352 351 351 350 349 347 346 343 338 329 317 300 281 270 259 249 243 238 234 233 231
219 224 234 246 250 256 266 271 271 272 272 267 266 269 270 271 275 288 299 315 327 338 345 349 352 355 356 355 356 356 356 355 353 352 352 350 346 340 330 321 300 277 261 249 242 237 232 231 229
218 226 235 243 248 254 262 271 272 269 270 263 262 262 262 262 269 284 295 311 325 336 342 347 350 352 354 356 357 358 358 359 357 356 356 356 353 348 339 330 318 295 272 252 240 235 231 229 228
218 227 236 245 252 259 265 271 273 270 268 261 259 255 254 253 264 280 290 308 322 332 339 344 347 349 353 355 357 359 360 1 1 360 359 359 0 358 351 341 330 312 280 258 242 237 232 229 227
217 228 238 248 257 265 267 270 269 270 266 259 255 249 245 245 259 275 284 301 317 328 336 341 345 349 352 355 357 360 1 1 2 3 3 3 3 2 0 353 344 333 305 270 251 244 234 230 229
218 228 241 252 261 268 271 272 270 270 266 260 253 244 238 239 253 269 281 296 313 325 333 339 344 348 352 356 359 0 2 3 4 5 5 5 5 6 5 3 356 345 326 294 261 251 239 231 230
220 230 245 256 264 270 272 274 272 267 261 254 246 239 234 238 250 264 276 291 310 322 331 336 342 347 351 356 359 1 2 4 4 5 6 6 6 6 6 5 1 352 337 309 281 268 251 239 236
222 233 250 262 269 273 273 274 271 264 253 245 238 233 233 238 247 258 270 286 306 320 328 334 341 346 351 354 357 0 3 4 5 5 6 7 7 6 6 4 1 356 346 325 297 277 263 251 244
228 240 250 262 268 272 272 274 268 260 248 241 235 232 232 237 245 253 264 282 304 316 326 333 339 345 351 354 357 360 2 4 5 6 6 7 6 6 6 5 2 357 351 340 318 294 277 262 254
239 246 256 263 268 272 272 270 264 256 247 238 232 230 232 237 242 247 258 278 300 314 324 331 336 343 349 353 356 359 0 1 3 4 5 6 6 6 5 3 0 357 352 345 336 321 298 278 266
244 250 258 266 273 274 269 265 261 255 248 240 233 230 231 236 239 244 255 274 295 311 321 328 334 339 345 349 353 356 358 359 0 1 3 4 4 4 3 2 359 355 351 345 338 327 314 297 282
250 254 260 265 270 274 270 262 258 254 248 241 234 231 233 235 237 243 255 271 289 305 315 325 333 339 342 346 350 353 356 358 359 359 359 0 0 0 360 358 356 354 350 344 336 327 318 306 294
254 259 264 268 272 271 269 263 258 254 247 242 236 233 234 235 237 244 254 267 281 295 307 319 329 337 342 345 348 350 353 355 357 358 358 357 356 356 356 354 353 352 349 345 340 332 321 311 300
Height
5895 5895 5894 5895 5894 5894 5893 5892 5892 5891 5891 5890 5889 5889 5888 5887 5887 5888 5884 5881 5879 5878 5877 5876 5875 5874 5874 5873 5872 5871 5871 5870 5869 5869 5869 5869 5869 5869 5870 5870 5870 5870 5871 5871 5871 5872 5872 5872 5873
5894 5894 5894 5894 5893 5892 5892 5891 5890 5890 5889 5888 5887 5886 5885 5884 5883 5882 5880 5878 5877 5875 5874 5873 5872 5871 5870 5869 5869 5867 5867 5866 5866 5866 5866 5866 5866 5866 5866 5866 5866 5867 5867 5867 5868 5869 5869 5870 5870
5893 5893 5894 5893 5892 5892 5891 5890 5889 5888 5887 5886 5885 5884 5883 5882 5880 5878 5877 5875 5874 5872 5871 5869 5868 5867 5866 5865 5864 5863 5863 5862 5862 5862 5862 5861 5862 5861 5862 5862 5862 5863 5863 5864 5865 5866 5866 5867 5868
5892 5892 5893 5892 5891 5890 5889 5888 5887 5887 5886 5884 5883 5882 5880 5879 5877 5875 5873 5872 5870 5868 5867 5865 5864 5863 5862 5861 5860 5859 5858 5858 5857 5857 5857 5857 5857 5857 5857 5857 5858 5858 5859 5860 5861 5862 5863 5864 5865
5890 5890 5891 5890 5889 5889 5888 5887 5886 5885 5884 5882 5881 5879 5878 5876 5874 5872 5870 5869 5867 5865 5863 5861 5860 5859 5858 5856 5855 5854 5853 5852 5852 5851 5851 5851 5851 5851 5851 5852 5852 5853 5854 5855 5856 5857 5859 5860 5861
5888 5889 5889 5888 5887 5887 5886 5885 5884 5883 5882 5880 5879 5877 5875 5873 5871 5870 5868 5866 5864 5862 5860 5858 5856 5855 5854 5852 5851 5849 5848 5847 5846 5845 5845 5845 5845 5846 5846 5847 5847 5848 5849 5850 5851 5853 5854 5855 5857
5887 5887 5886 5886 5885 5885 5884 5883 5882 5881 5879 5878 5877 5875 5873 5871 5869 5867 5865 5863 5861 5859 5857 5855 5853 5851 5850 5848 5847 5845 5843 5842 5841 5840 5839 5839 5839 5840 5840 5841 5841 5842 5844 5845 5846 5848 5849 5851 5853
5883 5885 5884 5884 5883 5883 5882 5881 5880 5879 5877 5876 5874 5872 5871 5869 5867 5865 5863 5861 5859 5857 5855 5853 5850 5848 5846 5844 5843 5841 5839 5837 5836 5835 5834 5833 5833 5833 5834 5834 5835 5836 5838 5839 5841 5842 5844 5846 5848
5880 5882 5881 5881 5881 5880 5879 5879 5878 5876 5875 5873 5872 5870 5868 5867 5865 5863 5861 5859 5857 5855 5853 5851 5848 5846 5843 5841 5839 5837 5835 5833 5831 5830 5829 5827 5827 5827 5827 5828 5829 5830 5832 5833 5835 5836 5839 5841 5843
5876 5877 5878 5878 5878 5878 5877 5876 5875 5874 5872 5871 5870 5868 5866 5865 5863 5861 5859 5858 5856 5853 5851 5849 5846 5844 5841 5839 5836 5834 5831 5829 5827 5825 5823 5822 5821 5821 5821 5822 5823 5824 5825 5827 5829 5831 5833 5835 5838
5872 5874 5874 5875 5875 5875 5875 5874 5873 5871 5870 5869 5868 5866 5864 5863 5861 5859 5858 5856 5854 5852 5850 5847 5845 5842 5839 5836 5833 5830 5828 5825 5823 5821 5819 5817 5816 5815 5815 5816 5816 5818 5819 5820 5823 5825 5827 5830 5833
5868 5870 5871 5872 5872 5872 5872 5871 5870 5869 5868 5867 5865 5864 5863 5861 5859 5858 5856 5855 5853 5850 5848 5846 5843 5840 5837 5834 5831 5828 5825 5822 5819 5817 5814 5812 5811 5810 5810 5810 5811 5812 5813 5815 5817 5819 5822 5824 5827
5865 5866 5867 5868 5869 5869 5869 5869 5868 5867 5866 5865 5863 5862 5861 5859 5858 5857 5855 5853 5851 5849 5847 5844 5842 5839 5836 5833 5829 5826 5822 5819 5816 5813 5810 5808 5806 5805 5804 5804 5805 5806 5807 5809 5811 5813 5816 5819 5822
5861 5863 5865 5866 5866 5867 5867 5866 5865 5864 5863 5862 5862 5861 5859 5858 5857 5856 5854 5852 5850 5848 5846 5843 5841 5838 5834 5831 5827 5824 5820 5816 5813 5809 5806 5804 5802 5800 5799 5799 5799 5800 5801 5803 5805 5808 5810 5813 5817
5858 5860 5862 5863 5864 5864 5864 5864 5863 5862 5861 5860 5860 5859 5858 5857 5856 5855 5853 5852 5850 5848 5845 5842 5839 5836 5833 5829 5826 5822 5818 5814 5810 5807 5803 5800 5798 5796 5794 5794 5794 5794 5795 5797 5799 5802 5805 5808 5811
5855 5857 5859 5861 5861 5861 5863 5862 5861 5859 5859 5858 5858 5857 5856 5856 5855 5854 5853 5851 5849 5847 5844 5841 5838 5835 5831 5828 5824 5820 5816 5812 5808 5804 5801 5797 5794 5792 5790 5789 5789 5789 5790 5791 5793 5796 5799 5802 5806
5852 5855 5856 5858 5858 5858 5859 5859 5858 5857 5857 5857 5856 5856 5855 5854 5854 5853 5852 5850 5848 5846 5843 5840 5837 5834 5830 5826 5822 5818 5814 5810 5806 5802 5798 5795 5792 5789 5787 5786 5785 5785 5786 5787 5789 5791 5794 5797 5801
5850 5852 5853 5854 5855 5855 5856 5856 5855 5855 5855 5854 5854 5854 5854 5853 5853 5852 5850 5849 5847 5845 5842 5839 5836 5833 5829 5825 5821 5817 5813 5808 5804 5800 5796 5793 5790 5787 5785 5783 5782 5782 5782 5783 5785 5787 5789 5792 5796
5846 5849 5850 5851 5852 5852 5853 5853 5852 5852 5852 5852 5852 5852 5852 5852 5851 5850 5849 5848 5846 5844 5841 5838 5835 5832 5828 5824 5820 5816 5812 5807 5803 5799 5795 5791 5788 5785 5783 5781 5780 5780 5780 5780 5782 5783 5785 5788 5791
5844 5846 5847 5848 5849 5850 5850 5850 5850 5850 5850 5850 5850 5850 5850 5850 5850 5849 5848 5846 5845 5843 5840 5837 5834 5831 5827 5824 5820 5815 5811 5806 5802 5798 5794 5791 5787 5784 5782 5780 5779 5778 5778 5778 5779 5780 5782 5784 5787
5841 5844 5845 5846 5847 5847 5848 5849 5848 5848 5848 5848 5848 5848 5848 5848 5848 5848 5846 5845 5844 5841 5839 5836 5833 5830 5826 5823 5819 5815 5810 5806 5802 5798 5794 5790 5787 5784 5781 5779 5777 5776 5776 5776 5777 5778 5779 5781 5783
5839 5841 5842 5843 5844 5845 5846 5846 5846 5845 5845 5846 5846 5846 5846 5847 5847 5846 5845 5844 5842 5840 5838 5835 5832 5829 5826 5822 5818 5814 5810 5806 5802 5797 5794 5790 5787 5784 5781 5779 5777 5775 5775 5774 5775 5776 5777 5778 5780
5837 5839 5840 5841 5842 5843 5843 5844 5845 5843 5843 5843 5844 5844 5845 5845 5845 5844 5844 5842 5841 5839 5837 5834 5831 5828 5825 5821 5818 5814 5810 5806 5801 5797 5794 5790 5787 5784 5781 5778 5777 5775 5774 5773 5773 5774 5775 5776 5777
5835 5837 5839 5839 5840 5842 5841 5841 5842 5841 5841 5841 5841 5842 5843 5843 5843 5843 5842 5841 5839 5838 5835 5833 5830 5827 5824 5821 5817 5813 5809 5805 5801 5798 5794 5790 5787 5784 5781 5778 5776 5775 5773 5773 5772 5772 5773 5774 5775
5834 5836 5838 5838 5839 5839 5839 5838 5839 5838 5838 5838 5839 5840 5840 5841 5841 5841 5840 5839 5838 5836 5834 5832 5829 5826 5823 5820 5817 5813 5809 5805 5801 5797 5794 5790 5787 5784 5781 5778 5776 5774 5773 5771 5771 5771 5771 5771 5772
5832 5835 5837 5837 5837 5837 5836 5836 5837 5836 5836 5836 5837 5838 5838 5839 5839 5839 5839 5838 5836 5835 5833 5831 5828 5825 5822 5819 5816 5812 5809 5805 5801 5797 5794 5790 5787 5784 5781 5778 5776 5774 5772 5771 5770 5769 5769 5769 5769
5831 5832 5834 5834 5834 5834 5834 5834 5834 5833 5833 5834 5834 5835 5836 5837 5837 5837 5837 5836 5835 5833 5831 5829 5827 5824 5821 5818 5815 5812 5808 5804 5801 5797 5794 5790 5787 5784 5781 5778 5776 5774 5772 5770 5769 5767 5767 5766 5766
5829 5830 5831 5831 5831 5831 5832 5831 5831 5830 5830 5831 5832 5833 5834 5835 5835 5835 5835 5834 5833 5831 5830 5828 5825 5823 5820 5817 5814 5811 5807 5804 5801 5797 5794 5790 5787 5784 5781 5778 5776 5773 5771 5769 5767 5766 5765 5764 5763
5827 5828 5828 5828 5828 5828 5828 5831 5828 5827 5828 5828 5829 5830 5831 5832 5832 5833 5832 5832 5831 5829 5828 5826 5824 5821 5819 5816 5813 5810 5807 5803 5800 5797 5793 5790 5787 5784 5781 5778 5775 5773 5770 5768 5766 5764 5763 5762 5760
5824 5825 5825 5825 5825 5824 5824 5828 5824 5824 5824 5825 5826 5827 5828 5829 5830 5830 5830 5829 5828 5827 5826 5824 5822 5820 5817 5815 5812 5809 5806 5802 5799 5796 5793 5790 5786 5783 5780 5777 5774 5772 5769 5767 5764 5763 5761 5759 5757